Dewpoint
47 46 46 47 46 47 43 39 39 44 47 37 36 30 35 38 36 36 35 33 31 29 28 27 29 29 30 32 32 33 32 33 31 34 37 38 35 32 29 26 22 21 21 19
47 46 46 46 46 45 42 36 37 45 45 36 32 34 36 37 35 34 32 31 32 31 28 27 29 30 32 33 32 29 31 30 27 29 33 35 34 34 34 30 29 24 18 16
46 46 46 46 45 45 42 39 36 40 41 40 37 33 32 35 38 35 33 31 31 29 27 27 29 31 34 32 32 39 35 30 25 22 23 30 28 31 33 34 28 25 25 20
46 46 46 46 46 47 41 37 36 37 35 35 35 37 36 33 33 37 33 32 31 29 26 26 28 31 32 33 37 32 32 24 25 27 30 30 29 29 29 27 27 23 22 20
46 45 46 46 46 43 34 34 34 36 34 35 33 35 35 35 35 34 31 32 30 28 32 30 27 29 28 28 32 30 32 25 26 21 28 28 27 29 29 29 27 27 27 26
45 46 46 46 46 41 31 33 35 37 34 32 32 34 35 36 36 36 36 36 35 34 34 36 34 30 29 29 30 29 31 26 21 19 26 26 22 26 27 28 29 27 25 26
46 45 45 46 44 43 35 33 34 31 27 22 26 27 32 34 34 35 37 39 36 35 36 35 32 31 30 30 30 30 31 29 24 18 23 15 20 28 28 27 28 29 28 27
46 45 45 45 45 45 36 36 34 30 25 21 21 24 24 29 34 36 38 41 41 41 38 32 29 30 29 29 30 29 32 31 24 21 21 23 25 28 27 27 27 29 28 28
46 45 45 45 45 45 39 37 37 33 26 22 22 21 25 29 30 35 39 41 42 40 38 34 28 27 27 28 30 32 31 31 27 28 21 20 28 29 30 31 26 32 30 29
45 46 46 45 45 44 42 40 38 33 28 28 28 24 29 26 25 29 35 33 37 39 34 30 28 27 25 25 26 26 30 29 26 28 25 24 27 30 34 28 29 31 30 30
45 45 45 45 44 45 42 40 39 33 29 30 30 28 24 25 25 24 27 32 37 37 32 30 29 27 26 25 25 27 26 25 26 27 25 20 35 34 32 33 35 35 35 36
45 45 45 44 44 44 43 40 41 39 33 30 34 33 33 32 31 27 26 26 32 35 36 35 33 29 26 26 24 28 25 27 25 26 26 28 35 33 36 36 35 36 37 37
45 44 44 45 45 45 43 38 38 37 33 30 29 29 30 32 32 33 25 29 32 32 34 34 36 32 32 25 25 27 28 29 27 27 28 30 30 35 36 37 37 38 38 37
45 44 44 45 45 44 42 38 40 37 33 26 26 30 30 32 30 33 33 31 31 31 33 30 32 33 35 31 30 29 30 30 28 29 30 32 32 34 36 37 37 37 37 37
45 44 44 45 45 41 41 39 39 40 33 27 28 32 31 28 31 32 33 32 30 29 28 26 26 32 33 33 33 30 32 31 29 29 31 30 30 33 37 37 38 38 37 37
44 45 45 44 42 42 39 33 39 40 39 32 26 32 29 28 29 30 30 31 30 30 29 27 28 31 33 29 27 25 28 33 34 32 34 35 38 38 39 38 37 36 35 36
44 44 44 41 42 39 34 32 36 40 39 31 25 27 30 27 31 33 32 31 31 30 29 28 26 27 30 28 22 26 29 35 37 36 38 37 37 36 35 35 34 35 35 35
44 43 39 39 42 41 35 38 40 40 36 33 25 26 29 34 33 31 33 30 31 31 29 29 26 26 26 22 24 25 24 32 37 34 35 36 35 33 34 34 35 34 34 35
42 39 40 40 36 33 34 39 41 41 36 27 26 24 24 37 35 36 33 31 25 29 27 26 25 22 20 24 24 24 33 36 36 36 33 32 33 34 35 35 34 33 34 35
41 36 35 31 33 37 38 38 35 34 34 34 27 32 27 34 33 33 33 32 27 24 25 28 24 23 25 26 30 38 37 37 38 34 32 31 30 33 33 33 35 35 35 34
36 33 32 34 39 36 33 30 29 31 26 31 30 32 30 33 30 31 35 31 29 27 27 26 28 31 34 35 31 31 31 34 35 34 33 33 34 34 34 34 35 35 34 31
35 33 36 36 33 27 18 15 26 24 24 31 31 30 31 32 36 33 34 31 32 25 34 30 30 34 34 35 33 33 33 34 33 33 33 34 34 34 35 35 35 35 35 31
36 30 25 25 21 13 9 9 15 16 27 25 27 25 29 31 35 34 33 31 31 33 30 31 32 31 30 32 34 33 33 35 34 31 32 32 33 34 34 34 34 35 34 35
25 16 10 15 12 14 18 18 17 25 23 24 26 28 26 29 30 33 30 33 33 27 23 27 32 32 30 29 30 29 30 33 33 32 31 30 30 30 30 28 27 29 31 33
23 19 11 11 21 17 18 25 19 23 26 25 23 25 30 29 28 31 32 30 26 29 28 32 33 33 32 29 29 27 25 27 28 28 28 28 28 27 26 27 27 26 27 31
20 18 16 21 15 14 16 14 17 24 27 24 26 23 25 26 29 27 29 29 27 28 32 35 34 32 33 30 27 23 20 22 26 26 29 28 26 25 24 25 24 27 27 26
27 17 24 21 15 19 19 25 25 29 24 17 19 13 15 22 24 22 30 29 29 32 32 33 33 32 32 32 27 24 20 20 22 23 26 26 27 21 15 15 18 23 27 27
Lifted_Index
16 16 16 15 14 12 10 6 4 4 4 3 3 3 3 3 3 3 3 3 3 3 3 3 3 3 3 3 2 2 2 2 1 1 1 2 1 1 1 1 1 1 1 2
17 17 16 15 14 12 10 7 4 4 4 3 3 3 3 3 3 3 3 3 3 3 3 3 3 3 3 3 3 2 3 2 1 1 1 1 1 1 1 1 1 1 1 2
18 18 17 15 14 12 9 7 5 3 3 3 3 3 2 2 3 3 3 3 3 3 3 2 3 3 3 3 3 3 3 3 2 2 2 2 2 1 2 1 1 1 1 2
18 18 17 16 14 12 10 8 6 4 3 3 3 2 2 2 2 3 3 3 3 3 3 3 2 3 3 3 3 3 3 3 3 3 3 2 2 2 2 2 2 2 2 2
18 18 17 16 14 13 12 10 7 4 3 3 3 2 2 2 2 2 3 3 3 3 3 3 3 3 3 3 3 3 3 3 3 3 3 3 3 3 3 3 3 2 2 2
17 17 17 16 15 14 12 11 9 5 4 3 3 3 2 2 2 2 2 2 2 3 3 3 3 3 3 3 3 3 3 3 3 3 3 3 3 3 4 4 4 3 3 3
16 17 16 16 15 13 12 11 9 7 5 4 3 3 2 2 2 2 2 2 2 3 3 3 3 3 3 3 3 3 3 3 3 2 2 2 3 3 3 4 4 4 4 4
15 16 16 15 14 13 11 10 9 8 6 5 5 4 3 3 2 2 2 2 2 3 3 3 3 3 3 3 3 3 3 3 3 2 2 2 2 3 3 3 4 4 4 4
15 15 15 14 13 12 10 10 9 8 7 7 7 6 6 5 3 3 2 2 2 2 2 2 2 2 3 3 3 3 3 3 3 2 2 1 2 3 3 3 2 3 3 4
14 14 14 13 12 11 10 10 10 9 7 7 8 8 7 7 5 4 3 3 3 2 2 2 2 2 2 2 3 3 3 3 3 3 2 2 2 3 3 2 2 2 3 4
13 13 13 12 11 10 10 10 10 10 9 9 9 9 9 9 8 6 5 4 3 3 3 3 2 2 2 2 3 3 3 3 3 3 3 2 3 3 3 2 2 2 3 4
12 12 12 12 10 9 9 10 11 11 11 11 10 10 10 11 10 9 8 6 5 4 4 3 3 3 3 3 3 3 3 3 3 3 3 3 3 3 3 3 2 2 3 3
11 11 12 11 10 9 10 11 11 11 11 10 10 10 11 12 11 11 10 9 8 7 6 5 4 4 3 3 3 3 3 3 3 3 3 3 3 3 3 3 3 3 3 3
10 11 11 11 9 9 10 11 11 11 10 9 9 10 11 11 11 11 11 10 9 8 8 7 6 5 5 4 4 4 3 3 3 3 3 3 3 3 3 3 3 3 3 3
9 10 10 10 9 9 9 11 11 11 10 8 8 9 11 11 11 10 10 9 8 8 8 8 7 7 7 6 6 5 4 3 3 3 3 3 3 3 3 3 3 3 3 3
9 9 10 10 10 9 9 10 11 11 10 8 7 8 9 10 10 9 9 8 8 8 7 7 8 8 8 8 7 7 6 4 3 3 3 3 3 3 3 3 3 3 4 4
9 9 9 10 10 9 9 9 10 10 9 7 5 5 7 8 7 7 7 7 7 7 7 7 7 8 9 8 9 9 8 6 4 4 3 3 2 2 3 3 3 4 4 4
9 9 10 10 9 9 9 9 10 10 8 6 4 4 5 6 5 5 6 6 6 6 6 6 7 7 8 8 9 10 8 6 4 3 3 3 3 3 3 3 4 4 4 4
9 10 9 9 9 9 9 9 9 8 7 5 4 4 4 5 5 5 5 5 5 5 6 6 6 6 5 7 8 8 7 5 4 3 2 3 3 3 3 4 4 4 4 4
9 9 9 9 10 9 8 7 6 5 5 5 5 4 4 5 5 4 4 4 4 4 4 5 4 4 4 5 6 6 5 5 4 3 2 2 3 3 3 4 4 4 4 4
8 8 8 9 9 8 7 6 5 4 5 5 5 5 5 5 4 4 4 4 3 3 3 4 3 3 3 4 4 4 4 4 4 3 2 2 3 3 3 3 4 4 4 4
8 8 8 8 8 7 6 5 5 5 5 5 5 5 5 5 5 4 3 3 3 2 2 2 2 2 3 3 3 4 4 4 3 2 2 2 2 2 3 3 4 4 4 4
7 7 7 6 6 6 5 5 6 6 6 5 5 5 5 5 4 3 3 2 2 2 1 1 2 2 3 3 3 3 4 3 3 2 2 2 2 2 3 4 4 5 5 5
6 6 5 5 6 6 5 5 6 6 6 5 5 5 4 4 3 3 2 1 1 1 1 2 2 3 3 4 4 4 4 4 3 3 2 2 2 2 3 5 6 6 6 6
6 5 5 5 6 6 6 6 6 5 5 5 5 5 4 3 2 2 1 1 1 1 2 3 4 4 4 4 4 4 5 5 4 4 3 3 3 3 4 7 8 8 8 8
5 5 5 5 5 6 6 5 5 5 5 5 5 4 3 3 2 2 1 1 1 2 4 4 4 4 4 4 5 5 6 6 6 6 5 4 5 5 6 8 9 9 9 10
6 6 6 5 5 5 5 5 5 5 4 4 4 4 3 3 2 1 1 2 3 4 4 5 5 5 4 4 5 6 7 8 8 7 7 6 6 6 7 8 9 10 10 11